Theta_e
315 314 315 315 315 313 314 313 312 311 310 310 307 311 306 304 302 313 316 318 310 301 296 304 304 298 298 305 303 303 301 300 300 299 301 303 302 300 299 300 299 300 298 297 295 296 294 295 295 295 296 295 298 299 298 300 300 297 294 300 299 311 296 293 294 297 300 299 301 302 303 303 299 297 299 298 295 297 293 291 293 298 302 298 296 297 305
315 314 315 315 314 313 313 312 312 312 311 308 307 308 305 305 305 308 315 313 308 299 294 293 295 297 301 301 301 303 301 299 298 298 299 300 299 298 300 302 305 301 301 299 296 300 291 298 295 294 297 294 299 299 298 300 298 298 295 297 302 296 298 293 289 287 289 293 295 297 300 298 296 296 296 299 299 300 298 300 301 298 300 300 297 295 302
315 314 315 315 314 313 312 312 312 312 312 310 307 308 308 307 310 309 312 314 303 299 296 295 295 297 298 298 297 299 299 301 300 299 298 301 300 302 300 301 302 302 302 299 299 300 296 293 298 296 297 296 303 298 298 300 298 302 306 313 311 298 299 294 287 284 283 284 285 287 291 294 297 298 297 298 299 299 299 296 298 291 300 301 299 299 307
315 315 316 314 314 313 313 312 312 312 311 310 308 311 308 305 298 305 302 304 302 300 302 297 295 295 297 296 297 299 297 299 301 301 300 300 301 299 301 302 303 301 300 298 299 298 301 298 298 296 294 296 298 300 299 300 299 311 324 317 305 298 303 300 294 289 287 289 291 296 303 295 292 295 296 297 299 301 300 298 296 293 298 298 301 305 306
315 315 316 315 314 313 313 312 312 312 310 310 309 312 308 311 302 299 295 299 297 296 295 297 296 295 298 291 296 295 297 299 299 302 296 300 300 301 301 302 301 302 302 301 299 301 299 301 300 299 296 298 298 300 302 299 311 322 311 313 304 298 294 297 298 300 298 298 298 297 300 295 294 295 295 298 298 299 301 297 297 303 301 292 303 307 306
316 316 316 315 314 313 313 312 312 312 310 309 312 312 312 296 300 302 305 294 289 290 294 295 296 300 301 295 299 296 296 296 295 300 301 301 302 298 300 301 301 302 302 302 298 301 300 300 297 301 301 298 299 297 300 299 308 307 300 304 299 294 291 298 298 296 298 298 297 297 296 296 295 295 296 297 298 297 297 304 306 304 299 297 303 305 307
316 316 316 316 314 313 313 313 312 311 310 310 314 305 306 307 306 304 312 300 302 296 299 301 298 300 303 298 299 294 294 294 297 297 297 300 298 300 296 299 299 302 304 301 298 299 293 294 301 299 298 298 298 295 298 301 303 300 297 298 301 295 293 300 298 296 296 297 297 296 295 295 295 295 296 297 298 296 299 303 307 306 303 307 307 307 309
316 316 316 316 315 314 314 312 312 311 309 314 314 309 304 301 303 304 312 311 303 297 297 301 300 296 304 294 297 296 294 294 297 297 296 296 297 300 298 298 300 301 301 300 297 301 300 300 296 301 299 294 298 297 298 294 300 301 297 298 298 294 293 303 297 292 293 296 298 295 295 294 293 295 296 297 297 297 299 310 310 310 308 309 309 307 306
316 316 316 316 315 314 314 313 312 310 310 317 314 312 312 308 311 312 306 304 305 307 300 299 297 293 295 293 300 300 298 299 301 298 299 298 297 298 299 300 298 299 297 296 296 300 305 306 304 301 298 293 301 295 297 300 298 299 298 298 298 297 292 297 295 290 290 294 294 294 294 294 294 294 295 295 296 295 295 298 306 307 305 307 307 304 305
316 316 316 316 315 314 314 313 312 310 310 314 311 311 317 311 312 316 311 301 310 303 303 300 295 292 297 300 299 299 299 301 299 295 299 299 300 301 301 300 297 296 296 295 297 299 299 299 299 299 298 299 299 298 299 298 298 297 296 300 294 295 292 290 290 288 290 293 294 293 293 290 288 291 294 296 298 298 297 302 312 310 310 306 303 302 309
316 316 316 316 316 315 315 314 313 310 310 307 308 310 314 311 308 309 309 302 304 303 299 295 295 299 298 301 299 301 300 301 300 293 294 300 299 301 302 301 296 294 296 299 302 301 301 300 301 300 299 299 299 298 299 300 301 300 297 295 296 299 293 290 294 286 289 294 295 295 289 283 285 296 299 299 296 299 300 302 308 309 311 307 310 309 312
316 316 316 316 316 315 315 315 313 311 309 306 308 309 316 316 312 310 306 301 300 306 293 294 295 300 298 299 300 299 298 299 300 303 297 298 298 300 299 298 296 291 299 301 302 302 303 304 301 301 301 300 298 298 299 298 297 303 297 298 297 296 294 291 293 287 285 289 291 287 283 285 297 300 300 301 301 309 308 308 310 310 311 312 311 312 312
316 316 316 316 316 315 315 315 314 312 311 308 309 310 316 318 314 311 308 304 300 304 296 297 300 298 298 299 299 300 300 301 303 305 301 302 298 298 299 300 299 300 303 300 303 303 300 297 297 299 298 298 300 300 300 299 298 299 298 298 295 293 293 294 291 289 287 284 284 279 280 290 299 298 300 306 300 301 309 306 309 312 312 313 311 311 313
316 315 316 316 316 315 315 315 314 314 311 309 307 309 313 315 311 310 308 303 305 308 307 297 299 300 301 301 299 299 299 300 299 300 299 302 298 299 301 303 303 304 302 302 303 299 295 289 288 288 290 292 291 292 298 300 298 297 298 297 299 298 294 293 288 291 284 285 283 283 291 294 295 296 297 297 296 297 302 299 301 310 312 312 311 311 312
316 315 315 316 316 315 315 315 315 314 313 309 307 311 314 317 315 312 312 309 305 307 299 294 299 300 301 301 301 297 297 298 296 296 303 305 300 302 302 303 303 302 302 301 297 297 293 292 287 284 287 285 281 286 296 295 298 299 299 298 298 295 292 294 287 290 290 283 281 282 282 282 287 297 301 302 302 303 304 302 296 303 310 314 311 310 311
317 315 315 316 316 315 315 315 315 314 313 309 308 308 311 318 319 316 313 309 304 296 300 305 306 303 296 300 303 301 300 298 299 298 297 302 301 302 302 304 304 303 303 303 299 296 296 291 289 285 282 285 292 290 286 293 292 297 297 298 297 298 295 293 291 290 289 286 280 280 279 283 292 296 299 299 300 305 303 296 293 303 307 311 312 310 312
317 316 315 316 316 315 315 315 314 314 313 310 306 307 310 318 318 315 312 310 307 303 312 309 307 306 301 299 301 298 299 297 297 296 297 297 303 301 303 306 305 305 304 297 297 293 291 290 289 286 289 292 283 282 289 285 286 290 296 298 295 292 290 284 283 286 290 287 283 282 288 287 296 299 299 297 298 304 297 287 287 300 305 307 312 311 311
318 316 315 315 315 315 315 314 314 314 313 312 307 305 310 315 320 316 312 308 303 302 305 311 305 300 300 301 299 305 304 300 300 301 297 301 304 303 305 305 300 305 305 297 298 292 292 291 284 284 285 295 293 286 278 280 282 285 288 291 288 287 287 286 283 284 288 291 284 286 292 299 303 301 300 299 304 296 287 282 294 304 305 308 311 312 312
318 316 315 315 315 315 315 314 314 314 314 310 309 312 314 317 319 316 312 306 302 297 306 312 313 309 308 308 306 307 304 302 300 295 297 297 301 307 304 303 305 295 301 295 293 292 291 290 292 285 283 290 291 283 287 283 281 287 289 284 286 287 290 292 286 285 284 283 283 284 287 298 302 299 303 303 297 284 284 297 307 306 305 306 310 311 311
318 316 315 315 315 315 314 314 314 314 314 312 308 305 309 313 321 318 311 305 305 301 307 310 311 308 312 303 299 298 302 302 301 298 297 295 302 304 296 293 297 301 298 295 290 293 290 289 291 292 285 286 289 291 284 284 290 289 287 291 287 287 287 283 283 285 285 285 284 283 282 296 306 303 299 302 290 290 295 303 304 305 303 304 304 306 307
317 316 315 314 315 315 314 314 314 314 314 313 308 307 311 320 322 321 318 312 304 301 301 311 315 311 313 311 308 306 304 303 303 300 303 301 307 298 286 292 296 297 296 294 291 292 294 289 290 291 293 288 293 291 284 283 288 293 292 291 290 294 288 284 287 292 281 281 281 282 289 297 305 300 293 301 302 304 305 302 300 303 303 302 302 302 303
318 316 315 314 314 314 314 313 313 313 313 313 310 308 309 316 319 322 322 317 307 303 303 311 316 314 317 318 314 307 307 309 310 308 303 302 305 299 299 303 303 301 302 300 295 296 295 295 296 290 288 292 291 286 288 286 281 289 297 292 284 291 290 289 286 294 290 288 289 293 296 300 305 307 305 307 309 310 308 304 303 302 302 304 302 302 303
318 316 314 314 314 314 314 313 313 313 313 314 310 305 307 311 315 319 317 307 309 313 318 315 316 315 319 319 315 309 309 311 310 309 306 301 298 302 302 300 300 307 308 303 295 295 297 294 294 295 292 293 293 290 290 287 284 288 288 293 288 298 300 297 293 292 296 298 299 302 303 304 306 307 306 305 304 306 306 305 303 304 304 304 302 302 302
317 316 314 314 314 314 313 313 313 313 312 313 311 304 305 309 311 317 314 310 307 303 306 309 307 304 307 310 313 313 309 309 311 311 312 306 299 298 302 307 308 308 304 306 305 298 299 296 298 296 289 293 294 287 285 284 289 293 291 292 293 298 300 296 292 296 289 286 297 299 301 304 304 304 306 306 305 305 305 304 304 304 305 304 304 303 303
317 315 314 314 314 313 313 313 312 312 312 312 311 311 311 310 314 316 310 304 304 301 298 303 307 313 316 314 310 308 309 312 311 310 309 308 303 300 300 309 311 304 305 307 308 304 301 296 296 294 290 295 297 287 292 290 289 295 287 291 292 293 300 295 295 294 287 291 299 301 304 303 304 303 302 302 303 304 306 307 307 306 306 306 305 305 304
316 315 314 313 313 313 313 312 312 312 312 312 312 305 305 308 313 316 313 311 309 305 301 299 305 315 317 316 312 313 313 310 310 311 310 309 309 307 306 312 310 312 310 312 305 303 299 298 297 296 292 293 301 292 294 294 293 296 292 292 296 297 303 291 297 293 294 298 300 302 301 302 303 305 304 305 304 303 304 305 305 305 305 305 305 305 305
316 315 314 313 313 313 312 311 311 312 312 312 310 305 305 309 313 313 310 308 304 301 300 298 303 310 314 312 316 316 316 311 311 310 311 312 311 310 309 308 308 307 307 306 306 304 301 298 297 295 297 296 302 299 298 296 296 295 294 298 303 299 293 298 294 291 288 292 296 301 294 294 300 303 305 306 306 305 304 304 304 304 303 304 304 304 305
316 314 313 313 312 312 311 311 311 311 312 312 310 308 308 308 314 318 317 313 307 300 298 298 299 305 314 311 316 313 314 315 311 311 311 311 311 309 307 306 305 305 305 302 300 300 298 297 295 300 303 302 296 294 301 300 299 295 295 295 300 297 297 295 293 289 291 298 301 300 299 298 301 304 306 306 307 306 306 305 303 304 304 304 303 303 303
315 313 313 312 312 311 311 311 311 312 312 310 307 308 311 313 316 317 317 319 314 308 304 305 307 307 302 307 315 313 315 313 312 310 312 313 313 311 309 308 306 306 308 305 303 301 299 299 303 301 298 304 299 295 297 291 292 290 293 300 303 305 303 299 299 299 302 302 304 304 301 301 304 307 307 307 308 307 306 307 308 307 306 305 304 303 303
314 312 312 312 311 311 311 311 311 312 312 307 307 310 308 311 315 313 313 317 315 312 304 300 297 302 311 313 311 312 314 313 314 315 314 313 312 312 311 310 310 313 308 305 302 299 302 301 304 307 309 311 300 299 294 292 292 294 301 304 305 305 306 306 304 301 300 305 306 305 304 305 306 306 308 308 310 310 308 308 308 308 309 309 306 303 304
313 312 311 311 310 310 311 311 311 312 311 304 307 307 303 300 310 316 311 312 314 313 307 304 300 307 306 311 311 311 314 315 313 315 315 314 313 312 313 313 311 312 302 303 303 303 304 299 301 302 307 309 305 296 293 291 289 290 298 304 305 303 304 304 306 306 306 305 306 306 306 306 306 307 307 308 307 308 307 308 311 316 313 311 308 308 307
312 312 311 311 310 310 311 311 311 311 306 304 306 306 307 309 311 311 311 312 315 313 306 300 298 298 300 307 315 316 316 317 319 318 314 317 310 314 312 313 309 313 307 302 304 301 299 302 301 301 300 306 307 296 295 291 290 292 300 303 304 305 305 306 306 306 306 306 303 302 302 303 305 303 302 306 307 308 308 308 310 310 314 311 310 309 309
312 312 311 310 310 310 311 311 312 310 305 309 311 311 310 310 310 311 312 312 314 311 310 301 296 300 298 301 311 315 317 314 310 311 308 315 311 310 308 313 309 309 324 307 298 295 303 303 302 300 302 305 300 298 294 292 294 299 301 304 303 305 305 307 306 305 305 304 303 299 298 300 302 304 306 307 307 307 307 307 308 309 309 310 308 308 308
311 311 310 310 310 311 311 311 312 311 310 307 309 311 314 314 311 310 310 313 310 310 309 301 298 296 297 308 302 309 316 305 307 305 302 312 312 307 305 307 306 302 306 301 303 302 304 306 298 298 302 300 301 296 290 293 298 299 301 303 303 304 304 305 303 303 304 304 304 303 302 303 305 305 305 305 305 306 308 306 307 306 305 306 306 306 306
311 310 310 311 311 312 312 312 306 307 309 311 312 313 314 313 311 312 315 312 303 303 301 302 302 297 296 298 298 302 315 308 303 306 302 305 314 306 305 300 302 297 300 308 301 299 299 299 302 298 294 298 296 290 292 294 298 299 301 302 303 302 302 301 302 303 304 304 304 304 304 305 304 303 302 303 304 305 305 305 305 305 304 304 304 305 306
310 311 311 312 312 312 309 310 306 308 308 309 311 318 319 317 314 311 313 316 309 302 301 301 301 295 297 293 292 303 315 305 307 307 307 306 304 309 306 301 295 299 306 301 296 300 297 305 299 292 297 292 289 291 294 299 298 300 300 300 301 302 301 301 301 302 303 303 304 303 304 304 303 301 301 302 303 303 304 304 304 304 304 304 304 305 304
310 311 312 312 308 308 307 310 313 314 313 314 316 319 320 320 318 316 315 310 312 312 302 299 297 297 299 298 301 305 305 296 303 301 302 299 298 305 301 298 293 302 301 297 298 297 300 309 296 291 292 288 294 301 301 301 301 300 301 300 302 302 301 301 304 302 300 300 301 301 301 301 300 300 300 300 301 302 303 303 303 302 302 303 305 305 305
311 311 306 306 307 307 308 312 314 316 319 318 319 313 310 311 305 307 307 304 308 313 304 303 296 299 304 300 297 307 304 300 305 298 299 304 299 298 303 299 297 302 291 294 296 303 300 298 294 291 293 298 300 300 299 298 299 300 300 300 300 300 300 301 301 299 297 296 295 297 299 297 298 298 300 300 301 302 302 303 303 304 305 306 307 307 306
309 306 306 308 308 305 309 314 317 318 315 315 315 308 305 308 304 302 302 304 305 299 305 302 298 301 301 299 299 308 305 300 299 299 295 302 298 294 300 293 300 297 287 291 295 304 293 292 293 292 291 298 298 298 299 299 300 300 301 301 301 301 301 300 302 299 299 297 298 299 299 298 298 298 299 300 301 302 303 304 304 305 305 305 305 306 305
307 306 307 308 307 310 317 315 318 315 314 307 308 305 302 307 298 293 306 298 297 303 304 298 303 304 306 302 300 298 308 301 296 296 296 298 304 293 299 296 297 294 286 288 291 301 290 286 292 290 286 292 295 298 298 299 298 298 299 300 301 301 301 299 301 302 302 302 302 301 302 302 302 301 300 300 301 301 303 303 304 304 304 305 308 305 304
307 308 310 308 311 313 314 314 314 312 308 304 303 305 303 295 302 303 302 296 295 298 306 304 305 304 307 306 302 299 307 311 306 305 301 296 303 302 296 292 299 292 289 287 298 298 294 291 289 284 286 292 295 298 298 297 298 300 300 299 301 301 302 301 301 301 301 301 301 301 301 302 303 303 302 303 303 302 303 303 303 304 303 304 307 304 303
306 306 307 308 308 310 313 312 310 306 306 307 298 289 294 299 303 302 302 293 295 302 303 304 300 300 301 306 304 305 305 310 307 305 299 295 302 297 294 295 296 288 284 292 300 295 290 282 280 282 290 296 298 298 298 296 298 299 299 300 302 302 301 300 300 301 302 301 301 301 300 300 301 302 303 302 302 303 304 303 302 302 304 302 303 303 303
309 308 307 306 308 309 310 296 304 304 289 287 281 281 286 289 295 296 299 303 308 303 303 312 308 309 310 311 306 308 306 310 303 302 298 295 301 299 294 291 292 285 290 299 294 287 282 279 279 285 292 296 297 298 298 299 299 299 299 299 299 300 301 301 301 301 301 300 299 298 299 299 299 301 303 303 303 304 305 307 305 303 303 303 303 304 304
309 311 307 308 303 306 305 290 306 302 292 284 281 281 287 290 295 297 297 297 302 302 305 301 303 302 300 306 303 303 305 306 306 301 298 300 297 295 294 287 288 294 299 293 290 282 282 285 285 285 293 296 300 299 298 300 299 299 300 302 301 300 300 300 299 299 298 299 299 300 300 299 299 300 302 303 303 302 302 303 305 305 305 304 304 303 304
305 305 300 293 291 297 291 284 297 292 285 288 292 292 294 293 294 296 295 303 305 301 306 305 304 304 303 306 307 305 303 299 304 297 295 297 294 294 290 286 293 295 290 284 286 286 287 287 290 294 294 294 295 296 298 297 297 297 297 298 298 298 299 298 297 297 297 298 298 299 298 299 299 299 300 302 302 303 303 303 305 305 304 305 304 303 305
302 293 289 287 287 288 288 284 287 286 293 297 296 297 297 299 299 300 305 309 306 305 304 306 306 306 302 306 301 300 302 301 297 297 299 295 290 288 294 297 295 288 287 286 280 275 281 287 290 291 294 294 295 296 296 296 297 297 297 296 297 298 298 298 298 298 298 298 299 298 298 298 299 299 299 300 301 303 302 304 305 306 305 304 304 304 305
300 305 295 289 286 287 296 287 288 292 296 299 301 303 304 305 307 307 309 311 307 307 307 308 306 306 301 302 302 302 302 301 297 298 297 292 290 292 296 289 285 285 281 277 278 283 286 289 291 293 294 295 295 296 296 296 297 297 297 297 298 298 298 298 299 298 299 299 298 297 297 298 299 299 299 300 301 302 302 303 304 306 306 305 305 303 302
292 297 296 287 285 288 289 294 299 298 300 301 304 307 307 308 308 307 311 311 310 309 307 305 304 302 300 305 302 296 297 298 295 295 297 294 294 290 285 287 285 286 285 281 281 287 287 290 292 294 295 296 295 295 295 296 296 297 297 298 298 298 299 299 298 298 298 297 296 296 297 297 298 299 298 300 299 300 303 303 303 304 304 304 302 301 301
305 295 288 286 294 297 296 299 299 296 299 304 307 307 307 305 305 307 311 313 311 308 309 304 304 301 296 300 298 296 294 296 289 286 294 292 286 281 283 279 281 278 287 287 285 288 290 292 295 295 295 295 295 296 296 296 297 298 299 299 299 299 299 299 298 298 299 298 297 297 297 299 298 299 298 299 300 300 302 304 304 304 304 302 302 301 300
295 291 298 294 295 296 299 300 298 295 300 304 306 304 307 304 305 308 313 310 311 310 308 307 306 300 297 299 290 291 288 291 291 287 287 284 286 287 285 281 282 282 284 288 289 290 292 293 294 293 295 295 298 297 296 297 300 301 300 300 300 300 299 299 298 299 298 297 298 298 298 298 297 298 299 298 299 300 301 302 303 302 302 303 302 300 301
300 295 293 301 297 295 298 293 293 293 295 300 303 304 305 304 306 307 314 311 309 306 303 297 296 295 290 288 284 283 285 292 290 286 286 285 289 287 283 282 285 286 288 291 292 293 293 294 293 293 294 294 295 296 296 297 298 299 299 300 300 300 299 299 299 299 299 298 298 303 300 298 297 298 300 301 301 301 302 303 304 302 302 304 303 302 302
291 290 293 299 302 302 301 300 300 298 299 303 305 307 308 307 310 312 316 311 308 302 297 299 299 291 287 285 288 290 294 290 287 289 287 288 291 287 286 286 289 290 292 292 293 295 297 296 296 298 294 297 298 296 296 298 298 298 298 299 299 299 300 299 299 298 298 299 298 298 299 300 301 300 301 302 301 300 298 299 302 302 303 303 303 303 301
Wind_Speed
17 17 17 17 18 19 19 19 18 18 19 6 6 4 3 2 4 9 10 8 6 4 2 2 1 1 4 1 4 2 2 2 4 4 4 3 3 2 3 2 4 3 3 4 3 2 1 0 2 2 2 1 2 5 7 7 7 3 4 2 2 0 2 4 4 6 6 5 5 9 6 3 3 2 1 3 2 0 3 5 4 5 1 5 3 5 1
17 17 17 17 18 19 20 19 19 16 13 3 5 1 1 2 2 7 6 1 6 5 3 3 2 3 3 3 1 2 2 4 4 3 3 1 1 2 1 3 4 1 3 2 2 2 2 2 3 2 1 2 6 4 5 6 2 3 1 1 5 2 2 3 2 4 7 9 8 9 8 6 1 1 4 1 2 1 2 3 2 6 1 7 9 7 4
17 17 17 17 19 20 20 20 19 16 12 2 1 2 2 3 3 4 7 3 3 1 2 4 0 2 4 2 4 1 3 2 2 2 3 2 1 2 1 2 3 3 4 4 4 4 3 0 4 2 1 1 1 6 6 5 2 1 3 6 2 2 1 3 4 4 4 3 4 3 5 5 5 2 5 4 4 4 2 0 2 3 1 6 6 4 4
17 17 17 18 19 20 21 22 21 17 13 2 3 2 2 2 2 5 4 3 2 1 1 2 2 4 4 5 3 1 1 3 5 7 2 3 3 3 3 3 5 6 4 4 7 8 9 5 2 4 2 2 1 2 5 4 1 6 7 5 2 1 1 5 3 4 4 3 3 6 2 2 3 5 7 5 5 5 6 5 4 3 3 3 2 14 12
17 17 17 18 19 20 21 22 23 20 15 4 5 0 1 0 2 2 4 6 5 1 3 4 5 2 1 2 2 6 4 3 3 9 2 4 1 1 2 1 2 1 3 1 3 3 4 6 6 5 3 3 1 3 1 6 8 9 4 9 3 3 6 8 4 1 1 5 4 4 1 0 4 12 8 11 11 7 2 4 6 7 9 3 2 13 18
16 17 18 18 19 20 20 22 25 22 17 6 1 2 1 2 2 2 1 2 2 5 5 4 6 4 5 3 3 6 7 8 5 5 6 4 7 4 2 4 3 4 3 2 2 2 3 4 3 5 2 3 7 4 5 5 9 6 2 4 4 2 2 4 5 7 4 6 7 5 3 2 4 6 8 9 8 9 4 2 5 4 7 8 8 4 13
16 17 18 19 18 20 20 22 25 25 19 5 2 4 4 1 1 1 4 2 3 1 1 4 3 6 5 1 4 5 7 6 3 2 4 6 6 5 1 2 4 4 3 4 1 2 2 2 1 1 4 4 3 5 6 6 9 6 3 3 1 2 1 1 2 3 6 8 8 7 6 5 8 9 10 7 7 9 4 1 1 3 7 14 14 10 10
16 16 18 20 18 19 20 21 24 25 23 1 4 6 2 4 3 6 5 1 3 4 5 2 7 7 4 3 4 3 3 4 7 4 5 3 6 8 5 4 5 6 5 3 3 1 3 3 3 2 3 5 3 1 0 2 5 6 4 3 5 3 2 5 5 6 6 7 8 8 9 6 7 10 10 10 7 8 9 9 13 16 13 14 16 14 9
16 16 17 19 18 18 19 20 22 25 18 5 5 2 2 2 0 0 2 6 5 4 3 3 6 3 4 5 3 3 5 2 2 1 1 4 3 3 2 3 7 6 9 7 5 3 0 0 2 3 2 2 1 1 2 0 2 5 5 3 5 6 2 3 3 3 6 6 6 8 7 6 9 9 9 8 7 6 3 4 1 11 11 13 15 12 7
16 16 17 19 18 18 19 18 21 22 17 5 2 4 3 1 1 0 1 1 2 4 3 0 5 3 0 2 3 2 3 2 3 1 4 4 7 3 6 5 8 5 8 6 4 5 2 2 3 3 3 1 1 1 1 3 2 1 3 2 3 2 2 3 4 4 2 8 8 8 4 6 6 6 4 4 2 1 1 2 8 11 16 14 11 6 4
16 15 16 17 17 19 18 17 18 20 11 6 4 3 5 5 5 5 3 2 6 6 2 2 6 2 3 4 3 3 3 4 4 2 1 3 7 8 7 6 4 0 3 3 4 3 5 4 4 3 5 6 6 6 6 8 6 3 1 2 4 3 3 1 0 2 3 6 10 5 4 4 1 1 2 3 1 6 7 4 10 12 7 7 12 13 11
15 15 15 16 17 17 16 16 15 15 10 3 1 2 4 2 1 1 2 4 4 4 4 5 4 4 7 5 7 4 5 5 4 1 3 3 4 6 7 6 4 3 4 4 5 6 6 5 4 6 6 7 7 7 8 6 5 5 5 3 2 4 3 0 0 1 1 3 3 4 1 2 2 3 2 8 8 7 11 5 5 8 14 18 15 13 11
14 14 15 15 17 17 16 15 15 14 13 6 1 1 4 2 0 1 1 1 1 4 6 3 4 6 6 7 6 4 5 5 5 5 4 2 4 3 3 1 2 1 3 4 5 6 3 2 1 1 2 5 6 8 9 7 5 7 5 4 4 3 3 1 2 0 2 3 2 2 2 3 5 3 6 2 6 3 14 11 7 8 13 19 15 12 13
14 14 14 15 16 17 18 16 15 15 15 10 2 3 3 3 4 3 2 2 3 3 3 3 6 5 5 4 5 4 4 4 3 3 5 2 4 3 3 2 0 2 4 2 5 2 2 4 1 3 3 5 3 3 3 3 3 4 5 5 4 2 2 3 1 1 1 1 2 4 3 2 9 4 5 3 2 2 5 8 4 4 6 14 16 14 14
14 13 13 14 16 16 17 16 15 16 16 14 3 4 4 3 2 1 1 1 1 5 1 5 1 4 3 1 2 3 3 1 4 2 1 2 2 1 2 2 4 5 4 4 3 3 1 1 1 1 3 2 0 1 2 1 3 3 2 4 5 4 5 1 3 1 2 1 2 3 2 0 3 3 7 6 3 4 2 9 6 7 7 6 11 10 10
13 13 13 14 15 16 17 17 15 15 16 15 3 3 5 4 1 0 1 1 1 4 5 4 1 2 3 2 2 7 2 1 1 1 2 1 1 1 2 1 2 4 4 3 1 1 1 1 0 2 1 2 1 1 1 2 1 3 4 3 4 5 6 5 5 1 4 4 2 1 2 2 3 5 6 6 4 3 6 10 6 1 2 5 18 12 8
13 13 13 13 14 16 17 17 15 14 13 14 6 4 3 3 3 1 1 2 1 1 5 8 4 6 5 4 6 4 1 2 1 3 0 1 1 2 1 0 2 2 2 3 3 2 3 1 0 2 1 1 1 2 1 2 1 1 6 5 6 3 2 4 4 1 0 1 1 1 1 1 1 4 4 5 6 1 3 3 2 3 4 4 12 17 17
13 13 12 13 14 15 17 17 17 14 14 14 5 2 4 5 4 2 2 1 1 2 2 7 7 4 3 1 1 2 1 3 4 1 2 2 0 0 1 1 1 3 2 2 1 2 1 0 1 1 1 1 1 2 1 1 0 1 0 0 1 1 1 2 1 0 1 1 1 1 2 3 2 3 5 7 2 4 3 5 3 4 2 4 9 13 13
12 12 12 13 13 15 16 16 16 17 15 15 9 1 3 3 6 3 3 2 3 1 7 7 2 5 6 2 2 0 0 2 3 2 1 2 0 2 1 0 2 1 3 1 2 0 0 2 0 3 3 1 2 1 1 1 1 1 0 2 2 1 0 2 1 1 1 2 0 3 3 3 2 3 2 4 2 2 6 2 1 3 3 5 7 11 11
12 11 11 11 12 14 15 16 16 16 16 14 7 1 6 6 3 4 3 1 0 2 6 2 5 5 4 4 5 6 7 7 2 5 2 2 3 4 4 1 4 2 2 2 1 1 2 2 1 1 2 1 1 4 1 3 2 2 1 1 2 2 1 1 0 2 1 1 1 0 0 2 4 5 6 6 5 3 3 2 4 3 6 9 6 7 8
11 10 10 11 11 13 14 15 15 15 16 15 8 2 5 3 6 4 3 1 1 1 5 4 2 5 2 4 4 1 6 4 2 4 1 1 1 2 1 1 2 0 1 1 1 2 1 2 3 1 1 4 0 1 2 1 2 4 2 1 1 2 1 1 1 0 1 1 1 1 3 2 3 3 2 2 3 6 4 5 6 5 6 7 9 7 5
10 9 10 10 10 12 13 14 14 14 15 15 12 0 0 4 5 4 5 1 2 3 4 6 2 4 7 7 6 1 5 6 4 4 3 2 2 2 2 2 1 0 0 1 3 2 3 1 1 3 2 1 2 1 3 1 1 2 1 2 1 3 2 4 2 2 2 1 3 5 4 4 1 5 3 3 1 2 4 6 7 9 5 4 9 7 7
10 9 9 9 10 11 12 13 13 13 14 14 9 2 1 5 7 7 4 1 2 2 3 2 3 3 3 5 2 4 5 5 5 6 4 3 2 3 2 1 1 0 1 2 4 4 2 3 1 2 1 0 1 1 1 2 0 1 1 3 2 1 1 2 4 1 1 0 2 1 1 1 3 2 4 5 5 4 7 7 6 4 7 8 8 7 8
9 9 8 9 9 10 11 13 13 13 13 12 7 1 2 4 6 7 5 2 3 3 3 2 2 2 2 4 5 1 3 4 4 4 4 5 1 1 2 0 1 3 2 1 3 3 2 2 1 2 1 3 2 1 1 2 1 1 0 3 3 2 1 0 1 1 2 1 4 4 0 1 4 4 3 4 4 4 4 6 5 5 6 5 7 9 8
8 8 8 8 9 9 11 12 12 12 11 12 10 4 3 4 2 5 3 3 5 3 1 5 2 3 6 8 1 4 0 3 4 6 4 5 5 4 2 0 1 5 1 1 2 6 3 2 2 2 1 2 1 2 2 3 2 1 3 3 1 1 1 1 0 0 1 1 1 3 3 4 5 4 3 4 5 6 5 5 5 7 5 7 6 7 6
8 9 8 8 9 9 11 11 11 11 10 11 9 3 2 3 4 5 0 1 0 1 1 2 6 6 7 8 3 0 4 4 4 4 3 5 6 6 4 1 3 2 3 1 5 3 1 2 1 1 1 2 2 2 1 2 3 1 3 1 3 1 3 0 0 0 1 1 2 3 6 8 6 7 5 4 3 2 6 6 8 7 8 7 5 6 6
8 8 8 8 9 9 10 11 11 11 10 9 6 3 2 5 4 1 1 0 1 1 1 1 4 6 6 9 5 3 1 4 4 3 2 1 4 3 5 5 5 2 3 2 1 3 2 2 1 1 1 1 1 0 1 2 1 1 0 2 1 2 1 0 3 2 1 1 1 3 2 1 2 4 5 6 6 4 1 7 7 6 7 7 7 4 6
7 7 8 8 8 9 10 11 10 10 10 10 6 5 3 3 4 4 3 1 1 2 1 1 4 7 6 5 4 2 4 5 4 3 1 2 3 6 5 5 4 3 2 3 1 2 1 1 1 1 1 2 2 2 1 0 0 1 1 2 1 0 2 2 1 3 1 3 4 2 3 3 1 1 5 5 5 5 7 5 1 2 9 9 7 6 3
7 7 7 7 8 9 10 10 10 11 12 9 5 3 1 4 4 2 4 3 2 1 1 3 3 3 1 4 7 7 0 4 2 3 8 8 5 2 5 5 5 4 3 3 2 2 2 1 0 1 1 2 2 2 2 1 0 2 3 3 1 0 3 4 5 3 0 1 2 1 2 2 0 2 5 6 5 4 3 3 5 5 4 2 6 9 7
6 6 6 7 8 9 9 9 10 11 11 6 1 2 2 1 1 4 6 4 2 1 2 2 2 2 3 2 3 3 3 4 8 10 8 7 8 7 5 5 4 2 3 2 3 2 1 2 0 0 0 0 2 1 1 1 1 3 1 1 0 1 3 2 3 2 2 2 1 1 1 1 1 2 1 2 5 4 2 0 1 1 3 5 3 2 4
5 5 6 6 8 8 9 9 9 10 7 3 1 1 1 1 1 2 7 5 4 2 0 1 3 3 4 3 0 6 6 5 5 8 8 6 4 3 2 4 3 2 2 3 3 1 1 1 1 0 0 0 1 2 2 2 1 2 2 3 3 3 3 3 2 3 2 1 1 1 1 1 2 1 3 4 4 3 4 3 5 4 1 0 1 2 1
5 5 5 6 8 9 8 8 9 8 4 1 1 1 1 1 1 6 7 4 4 2 1 1 2 2 1 2 1 1 3 5 3 3 3 2 3 3 6 4 1 1 3 3 1 1 1 2 2 2 2 1 3 1 1 2 2 2 2 1 1 1 1 2 2 2 3 3 3 2 2 3 4 3 1 3 3 2 1 2 3 1 4 2 1 2 1
5 5 5 7 8 8 8 8 8 5 2 6 11 12 14 16 15 10 3 3 0 0 0 1 1 1 0 3 1 4 5 3 6 3 2 3 1 1 2 2 2 2 1 4 0 2 2 2 1 2 1 1 2 1 1 3 3 2 2 3 2 1 0 0 1 2 4 2 2 2 2 2 1 2 2 2 3 2 2 2 2 1 0 2 4 4 8
5 5 7 8 8 8 8 8 8 8 5 2 2 0 3 6 3 4 2 1 0 1 1 1 1 0 2 2 2 2 3 3 0 1 1 2 1 3 0 1 3 1 1 1 1 1 2 2 2 1 1 1 1 2 1 2 0 2 1 1 2 3 3 1 2 3 1 3 1 2 2 4 2 1 2 3 4 4 3 1 1 3 1 1 3 3 6
5 6 7 8 7 7 9 7 2 0 1 2 2 2 0 3 5 2 1 0 1 0 1 1 0 0 2 2 0 2 2 2 1 0 1 1 1 2 0 2 2 1 2 1 1 2 2 2 5 3 3 0 2 1 3 2 1 1 1 1 2 3 3 3 1 0 1 0 1 0 2 1 0 1 3 3 4 5 4 4 3 2 3 4 3 3 4
6 8 8 8 8 6 2 1 1 0 0 1 2 1 4 4 3 1 0 1 1 1 1 1 1 2 2 1 1 1 1 2 1 1 0 0 2 1 1 2 1 4 1 2 2 0 1 1 3 0 1 2 4 3 3 1 3 2 1 1 0 1 0 1 1 2 1 1 2 3 3 1 1 3 3 4 4 4 4 4 4 3 4 4 4 3 3
7 8 9 8 3 0 0 2 2 3 1 1 3 7 5 2 0 1 0 1 0 1 1 0 0 3 2 2 0 1 1 0 0 1 1 1 2 0 1 2 1 1 1 1 0 2 1 1 2 2 2 3 2 1 0 0 0 1 1 2 2 2 2 3 3 2 2 4 4 2 1 2 3 3 2 3 3 2 2 3 4 4 4 5 4 4 5
7 6 1 1 1 1 0 0 1 3 8 8 6 3 1 1 0 0 0 0 0 1 1 1 2 3 0 2 1 1 1 0 1 1 1 1 1 1 0 1 3 1 1 2 3 3 3 1 1 3 0 0 2 2 1 1 1 0 1 2 2 1 1 1 2 4 2 2 3 5 4 3 1 2 2 4 4 4 5 4 4 4 4 4 5 5 4
3 1 1 0 1 0 0 1 3 8 3 1 0 0 0 1 0 0 1 1 1 1 2 3 4 3 3 1 2 1 1 2 1 0 0 1 2 1 1 0 1 1 1 1 1 1 0 0 0 1 2 3 2 1 1 2 2 1 2 2 2 2 2 1 1 3 3 3 4 4 4 3 2 4 3 3 4 5 5 5 5 4 4 3 3 3 5
1 0 1 1 1 1 0 3 5 4 1 0 0 1 0 1 2 1 1 1 1 1 2 2 3 3 6 6 4 2 1 2 2 1 3 1 0 1 1 1 0 1 1 1 2 1 2 1 1 1 2 2 3 3 4 4 3 3 3 3 3 3 2 2 2 3 3 5 4 5 4 5 4 4 4 3 4 4 5 5 5 4 4 4 5 6 7
1 1 1 0 2 3 2 1 0 1 0 0 0 0 0 1 2 1 1 1 1 2 2 2 0 0 1 2 2 2 2 1 1 1 2 1 2 1 2 0 1 1 1 1 0 1 1 0 1 3 5 4 5 5 4 3 4 4 4 4 4 4 4 4 4 4 3 4 5 5 5 5 5 5 4 4 4 4 5 5 5 6 5 5 6 5 3
1 1 1 2 4 3 3 0 0 0 0 0 1 1 1 2 1 0 1 1 2 1 1 1 1 2 3 6 5 3 0 1 1 0 1 1 1 1 1 0 0 1 1 1 3 1 1 1 1 2 4 4 4 4 5 4 4 4 4 5 5 4 4 4 5 5 4 4 6 5 4 4 5 5 4 4 4 5 5 3 3 4 5 3 4 6 6
10 6 3 1 1 1 1 1 1 1 1 1 3 3 3 0 2 1 1 1 1 1 1 0 1 1 1 2 1 1 1 1 1 0 1 1 0 0 1 0 0 0 3 1 2 1 1 2 3 6 4 4 3 4 4 5 4 4 4 3 3 4 4 5 5 6 5 4 4 4 5 5 4 5 5 4 4 4 2 2 5 5 4 5 6 7 8
2 2 1 0 0 1 1 1 1 1 1 1 2 1 1 1 3 1 0 1 1 1 2 3 2 4 3 1 2 1 1 1 0 1 0 1 1 0 0 1 3 2 1 2 1 2 4 1 3 3 2 1 0 1 1 1 2 3 3 3 3 3 3 3 2 3 4 4 4 4 4 4 5 5 5 4 4 4 4 3 3 4 4 5 7 8 8
2 1 0 1 0 2 2 2 1 1 2 3 2 2 2 1 2 2 3 2 2 2 1 2 3 2 1 1 1 0 1 1 1 2 1 0 0 1 1 2 2 0 1 2 1 0 1 0 2 2 3 3 2 2 2 1 2 2 2 3 3 2 2 3 4 4 4 4 6 6 5 5 6 6 5 5 4 4 5 5 6 7 6 6 7 7 6
1 2 1 2 2 2 1 1 0 0 2 2 3 5 2 2 0 2 3 0 0 1 4 4 2 2 2 1 3 2 0 2 1 1 1 1 1 2 3 0 1 0 1 1 1 3 1 1 1 2 1 1 0 1 2 2 3 3 4 4 4 3 4 4 5 5 6 7 6 5 6 5 5 6 5 4 3 4 4 4 4 7 8 7 7 7 7
1 1 1 1 1 2 1 1 3 4 2 1 4 5 6 5 5 4 2 1 2 4 3 2 3 5 3 1 1 1 0 1 1 1 1 1 2 2 0 2 1 2 2 1 1 2 2 2 2 2 1 0 2 3 3 4 4 4 5 4 4 4 4 5 6 6 7 6 6 6 5 5 5 5 4 4 4 4 3 3 4 3 7 10 8 8 7
0 2 1 1 3 1 2 4 3 3 4 5 1 1 4 3 1 1 2 3 4 5 5 2 0 1 1 2 2 3 3 1 0 2 2 2 0 0 0 1 1 0 0 3 3 2 3 3 2 1 1 1 2 3 3 4 4 4 4 4 4 5 6 7 6 7 6 6 5 5 5 5 6 5 4 5 4 4 5 5 6 4 2 3 7 9 8
1 0 1 2 2 1 2 2 0 3 6 2 0 0 1 2 3 5 4 2 1 3 6 4 2 2 1 1 2 1 1 1 1 2 1 0 1 2 1 2 1 1 1 2 4 4 5 4 2 1 0 1 1 2 3 3 4 4 5 5 6 7 7 7 6 4 4 3 4 4 5 5 4 4 4 3 4 5 4 7 6 4 2 9 8 7 7
0 1 1 0 2 4 4 4 2 6 2 0 1 1 1 1 3 4 1 0 1 0 0 0 1 1 2 1 1 0 1 2 3 0 1 2 3 1 2 0 2 4 3 2 3 3 4 3 2 1 0 0 1 2 3 4 4 5 5 6 6 6 5 5 5 4 4 4 4 4 5 4 4 4 4 3 1 1 0 4 6 8 5 2 9 9 3
1 1 3 4 5 5 1 2 0 2 5 4 2 3 3 4 3 2 1 1 1 1 1 2 2 2 0 0 0 0 2 1 0 2 3 2 1 1 2 3 3 4 5 5 5 5 5 3 4 2 0 1 1 1 2 3 4 4 4 5 5 5 5 5 4 4 4 4 4 5 4 4 3 1 2 5 6 6 4 3 8 10 8 4 7 6 2
0 0 3 3 4 6 6 6 4 6 8 7 4 4 2 3 4 2 2 2 0 1 4 2 1 1 1 2 3 2 0 1 1 0 2 1 0 2 2 5 6 7 8 7 6 5 5 5 4 3 2 1 1 1 2 3 3 4 4 5 5 5 5 6 4 3 3 3 3 3 3 2 2 3 4 5 8 8 9 7 8 9 7 7 6 5 5
Wind_Direction
342 342 343 344 344 343 342 343 345 350 346 10 353 329 8 43 227 265 289 288 143 90 240 295 286 174 229 227 299 293 335 18 3 20 5 40 15 37 53 1 20 31 39 6 27 78 85 358 122 155 76 28 297 294 25 10 19 82 334 357 318 247 39 2 309 314 282 322 2 33 21 51 10 3 44 20 26 171 181 179 186 117 93 90 54 60 299
342 342 344 345 346 345 343 343 346 348 5 351 303 18 104 244 276 312 301 32 108 93 217 290 268 260 277 175 151 41 63 36 7 28 331 90 343 68 341 359 64 256 360 48 21 349 86 355 73 21 80 102 276 24 25 32 12 45 263 95 307 41 321 110 359 360 339 345 358 3 343 41 62 338 330 328 333 28 115 94 34 84 214 162 126 156 201
342 342 345 348 348 347 344 341 340 344 335 312 221 23 283 302 263 245 289 344 78 175 184 172 191 8 15 27 63 10 13 307 92 68 320 359 83 83 34 152 75 17 326 11 17 15 94 196 350 118 95 94 327 355 34 22 5 330 203 227 264 91 266 80 86 95 69 30 26 342 324 308 299 7 351 358 26 335 349 113 15 100 237 108 110 78 62
341 342 346 350 350 348 345 339 337 339 335 311 138 221 31 13 12 307 335 355 33 346 320 129 121 57 28 25 321 45 174 321 33 28 338 28 21 73 129 1 69 36 13 32 32 28 36 52 344 30 1 326 342 276 335 360 300 315 325 357 80 115 22 76 132 141 167 198 220 244 174 339 28 335 19 358 19 24 98 107 84 141 147 69 210 144 138
340 341 348 352 352 350 345 340 336 342 343 227 154 323 138 21 101 327 337 329 28 19 332 46 51 57 114 77 320 9 37 28 18 8 35 334 353 103 41 99 66 67 56 26 47 345 39 15 52 8 340 293 295 310 36 340 2 6 6 357 76 54 52 359 8 145 190 200 211 306 341 120 28 38 355 30 32 26 42 116 162 170 89 8 9 145 134
340 341 350 355 353 351 349 344 339 343 358 121 160 26 8 40 274 89 231 152 277 35 354 47 60 27 56 34 6 59 45 44 30 332 1 330 33 57 355 74 123 124 135 105 67 350 60 32 22 324 321 352 346 21 7 46 356 21 25 6 90 118 85 305 19 342 359 16 6 352 26 40 75 54 25 29 16 28 27 18 145 122 133 167 152 147 124
340 343 352 358 355 353 353 349 345 344 355 145 6 72 321 77 287 285 326 61 289 229 301 38 86 69 56 69 38 56 60 53 45 41 339 13 0 24 115 23 54 59 54 96 96 31 71 360 315 70 346 17 359 22 341 1 4 16 21 16 78 78 68 295 47 328 358 3 358 358 13 11 40 33 24 344 21 20 11 115 77 110 137 131 131 118 121
343 345 354 0 358 356 355 353 351 346 346 10 62 59 46 355 12 326 350 347 288 328 7 70 56 57 28 76 15 57 46 40 353 8 41 15 7 355 57 39 47 45 49 64 84 55 150 157 65 356 61 350 38 101 135 268 336 18 14 359 331 97 324 36 25 33 343 334 345 359 7 34 48 28 19 9 21 40 40 74 88 85 76 101 108 112 105
345 347 355 2 0 360 358 357 357 349 347 57 44 55 47 263 197 191 340 344 316 345 27 50 97 60 356 75 356 69 38 17 357 352 15 83 28 15 36 61 74 54 55 49 48 7 195 136 296 322 83 78 289 106 301 102 49 358 2 9 322 50 292 36 71 69 338 319 348 340 352 55 65 37 9 360 29 44 17 82 139 114 121 114 109 109 123
346 348 356 3 4 4 1 2 1 357 346 89 33 13 292 314 255 350 148 268 321 359 319 292 66 46 269 123 52 99 64 89 45 20 340 37 40 39 66 64 82 29 39 26 346 328 349 304 278 301 298 187 34 72 129 101 107 7 7 322 30 355 63 45 55 59 305 299 347 335 5 35 26 358 335 322 1 327 86 37 100 110 127 125 124 145 130
347 349 354 2 6 5 4 5 7 7 9 59 31 337 331 21 333 354 32 54 323 344 313 358 102 200 118 46 85 40 62 36 69 106 360 4 28 30 53 64 86 111 35 297 266 277 303 297 309 2 16 35 40 31 45 56 59 83 56 26 340 18 77 100 100 118 235 314 329 345 48 55 228 232 246 47 33 110 80 105 145 151 156 148 139 141 142
348 349 353 1 5 6 4 5 7 14 26 332 214 260 255 303 343 106 58 65 269 339 69 62 88 83 76 81 81 82 71 52 46 114 110 60 43 35 33 35 80 19 262 280 345 358 354 359 5 2 31 38 32 23 35 57 26 48 58 91 55 20 33 13 344 90 287 320 6 43 343 228 244 271 359 59 41 77 102 71 106 102 96 99 108 121 123
349 347 351 359 5 6 5 3 5 5 10 348 167 298 293 309 152 59 107 98 282 343 353 53 78 95 101 85 75 75 96 50 28 29 65 83 60 40 39 56 73 240 342 351 22 35 30 317 349 34 333 8 5 21 18 28 37 46 49 65 98 25 44 317 14 117 19 39 36 105 237 238 295 332 37 33 56 36 78 42 36 111 127 127 125 129 126
348 345 351 358 4 6 5 3 1 2 1 2 325 262 279 351 40 30 60 79 316 242 226 50 41 60 61 96 127 128 76 71 48 47 77 49 96 54 17 22 329 3 343 5 50 59 9 33 37 18 329 9 2 18 305 349 60 67 26 27 76 115 89 71 340 9 147 198 132 207 280 341 356 9 352 346 81 19 112 119 25 30 115 126 131 133 129
346 343 349 358 2 4 4 3 2 358 359 355 287 285 303 325 49 132 276 103 256 288 61 85 299 86 69 65 87 45 45 14 55 14 25 76 56 64 85 2 355 8 360 73 4 38 130 85 29 43 338 44 27 262 318 27 322 47 94 58 71 91 84 217 96 305 106 105 20 360 16 176 282 259 283 316 291 130 130 94 64 1 4 47 89 107 115
346 342 348 358 1 2 2 3 3 359 360 355 1 346 280 265 307 119 137 152 108 36 350 319 343 126 96 18 80 126 147 149 186 350 359 347 103 41 8 46 347 21 21 63 103 89 43 90 222 101 191 201 231 65 313 338 355 322 21 32 48 15 92 101 103 285 30 34 104 204 154 245 211 262 277 291 309 133 103 68 82 351 312 190 128 120 101
345 342 348 358 1 360 360 1 2 2 0 11 346 326 286 338 18 333 60 16 80 207 264 328 8 90 79 10 25 17 90 96 129 96 359 321 155 144 253 318 9 57 72 66 3 57 22 11 50 134 259 127 78 201 299 53 34 330 333 11 31 30 5 34 27 18 80 124 77 310 194 198 261 249 284 296 300 83 63 81 273 276 322 237 146 143 146
341 343 347 358 360 359 358 358 360 359 0 355 348 286 283 313 331 15 63 80 90 303 270 344 4 36 97 182 155 250 79 29 43 72 125 234 8 61 230 49 12 324 93 83 56 56 36 91 132 143 122 275 136 66 155 189 74 202 333 348 318 354 337 80 172 194 329 67 274 353 322 292 280 290 297 307 306 78 87 157 240 311 299 188 149 142 141
339 342 347 357 359 357 356 357 357 359 358 359 338 106 271 300 332 47 114 41 68 5 289 310 47 30 330 30 105 48 162 125 151 91 351 10 331 248 140 165 116 161 354 134 63 111 136 272 66 117 129 315 26 185 196 53 241 268 66 26 7 334 51 316 83 90 231 213 130 228 234 248 283 267 304 328 45 63 156 232 283 267 72 94 123 129 135
337 340 345 355 358 356 356 355 356 358 359 1 16 170 266 299 304 41 70 73 118 246 281 304 12 358 335 34 20 24 355 25 25 114 135 163 279 25 28 10 327 71 352 52 36 246 96 289 268 80 41 178 256 170 58 263 220 180 168 199 130 217 115 236 193 260 45 48 81 15 314 289 345 314 351 23 97 212 217 106 35 35 64 80 64 101 126
334 339 344 353 356 356 354 354 353 356 358 358 5 10 345 312 2 360 51 145 119 8 308 290 331 329 348 314 318 12 124 126 117 91 201 178 225 86 107 197 238 135 208 131 124 345 72 331 335 44 202 135 228 64 210 201 322 287 134 183 214 218 89 275 299 167 153 50 100 182 221 243 300 88 143 307 137 172 162 124 76 35 61 69 83 56 75
329 337 342 349 354 354 354 352 353 354 356 358 351 104 291 287 325 325 319 167 118 180 215 276 251 266 272 264 260 158 121 139 156 146 119 16 330 143 189 130 336 91 187 98 40 11 6 273 19 36 3 349 29 185 171 61 284 278 281 92 357 250 151 177 133 242 119 187 214 243 229 226 284 98 130 134 66 108 145 117 120 106 66 76 86 84 74
326 339 339 346 351 354 352 350 351 352 354 356 5 50 265 309 320 322 330 53 314 327 301 322 325 296 293 284 239 162 135 134 100 73 112 110 337 359 64 79 14 45 33 88 161 154 182 118 152 162 34 125 131 315 8 134 200 341 201 229 177 301 163 166 88 253 292 212 180 255 34 108 85 60 127 112 72 73 97 110 104 108 136 128 113 116 110
321 326 334 343 349 351 350 348 349 349 350 351 1 52 311 294 284 340 357 65 73 345 329 326 50 315 293 265 258 283 70 68 113 148 157 121 101 319 331 303 165 38 19 261 179 132 199 133 197 124 124 248 74 76 135 330 333 235 64 347 344 336 42 76 97 299 59 281 333 34 254 190 114 103 40 54 86 104 113 98 105 126 120 112 124 131 130
320 329 330 337 343 347 347 346 346 346 346 346 343 287 246 302 290 32 28 37 339 67 163 305 306 224 329 314 100 75 27 161 138 111 88 83 125 137 145 315 152 140 129 331 46 51 42 84 352 41 94 271 110 269 234 105 305 108 61 275 15 320 292 59 318 135 122 198 273 316 57 57 30 28 71 77 85 82 73 104 116 124 120 124 137 121 114
315 320 326 334 342 343 346 345 344 344 343 341 347 344 356 262 302 332 208 60 82 110 81 309 281 317 349 4 356 212 163 130 115 101 140 160 160 155 162 71 30 42 114 93 77 86 102 40 72 122 117 284 78 123 343 191 190 237 126 224 192 216 38 181 262 274 282 293 340 356 78 40 20 23 34 32 351 112 113 112 117 115 115 123 131 130 140
312 319 324 332 337 341 341 342 342 341 337 334 330 298 263 283 275 280 23 181 57 8 35 279 281 307 359 328 275 287 275 87 91 79 57 151 130 102 91 101 104 48 74 41 33 123 79 96 90 259 156 224 20 187 127 5 47 7 296 278 321 33 312 258 40 359 343 172 253 333 109 113 7 23 26 4 17 24 74 124 120 126 132 138 131 150 147
314 321 326 333 338 341 342 341 341 338 336 328 307 286 243 265 287 316 306 99 113 173 194 254 304 290 305 273 276 307 164 140 131 131 169 276 148 129 127 135 122 103 62 79 20 27 60 79 266 242 101 330 46 324 325 269 49 26 254 258 188 149 217 139 146 163 224 237 246 193 136 145 196 34 356 17 7 54 46 7 3 183 161 152 144 156 149
311 317 324 332 336 339 340 339 338 338 334 329 303 311 276 243 251 301 357 1 98 97 117 256 293 347 52 285 308 317 225 115 133 101 67 37 40 70 122 137 142 153 100 81 108 115 115 184 170 111 152 208 99 279 31 347 181 227 238 231 182 217 163 145 180 149 180 202 187 177 123 129 200 335 13 3 3 53 51 31 58 52 350 299 177 164 162
312 318 325 335 336 333 337 340 339 338 335 324 338 61 57 319 346 30 1 360 13 113 71 38 30 259 282 303 288 319 336 82 74 78 77 68 54 54 66 73 34 50 108 137 143 103 190 126 346 351 301 51 127 174 107 216 178 246 267 38 199 52 73 113 141 128 182 202 162 133 115 184 236 136 93 14 353 339 326 136 39 35 45 54 354 309 173
312 309 323 333 333 333 331 334 336 336 350 327 67 79 73 17 299 42 9 358 354 89 152 113 215 281 327 257 139 9 358 71 82 82 76 80 80 73 21 64 45 83 65 7 52 169 131 137 139 245 11 180 117 114 177 126 242 307 278 183 181 126 115 109 109 125 143 173 149 56 87 336 326 16 13 32 1 20 3 4 355 343 278 94 55 88 9
302 312 321 325 327 328 328 326 326 337 334 327 107 153 166 207 285 322 337 328 337 57 76 36 338 351 273 319 338 11 14 61 67 48 25 34 31 26 40 66 127 39 120 126 163 78 226 204 129 166 122 208 91 134 107 139 198 233 291 284 327 16 81 91 62 60 76 122 88 33 8 355 61 104 246 286 304 309 338 320 304 328 5 341 272 295 188
307 313 324 324 323 319 316 306 310 319 288 278 270 267 267 268 266 271 298 310 90 203 154 92 180 229 301 255 295 5 358 31 22 43 15 340 59 24 48 10 25 37 36 83 360 176 212 111 94 90 268 45 103 155 177 209 219 215 172 147 175 195 234 338 70 65 78 48 117 158 197 222 264 227 218 262 277 275 297 318 276 160 231 288 291 322 330
312 314 320 319 314 307 302 305 303 298 287 308 32 333 271 234 240 227 223 210 142 251 82 121 360 333 257 294 358 302 360 105 258 54 60 314 21 70 132 56 358 78 302 172 253 76 334 76 109 142 39 251 80 85 267 268 218 177 30 35 347 329 304 341 42 79 85 112 97 146 183 203 230 310 352 342 319 305 319 323 360 338 291 200 258 225 216
302 311 310 310 305 306 307 310 330 11 342 272 262 273 27 120 138 126 125 114 74 344 53 304 135 34 337 347 218 270 303 67 57 279 128 271 7 134 236 72 329 80 283 86 38 172 150 201 159 102 225 81 76 219 241 219 260 293 288 69 12 2 26 50 18 90 116 4 37 337 246 205 174 298 271 276 284 291 296 285 288 272 274 265 237 235 233
306 310 310 304 306 304 300 94 170 181 30 258 219 253 116 99 70 355 358 286 145 139 115 239 121 192 161 191 259 275 57 58 297 40 119 158 3 357 93 121 46 260 197 107 206 115 161 203 94 256 225 106 223 194 220 201 210 227 218 196 270 65 171 208 248 266 270 308 331 323 350 343 191 241 243 257 279 293 277 273 290 284 262 250 237 203 191
310 315 314 303 300 115 18 234 176 183 210 188 135 89 69 62 35 7 18 20 347 97 154 136 86 242 175 212 260 282 73 11 337 60 341 74 189 255 65 49 204 234 56 338 277 161 245 21 97 143 174 200 231 186 225 209 186 208 243 264 283 329 28 15 349 52 39 10 22 33 352 314 303 311 306 297 283 279 310 278 249 259 263 255 233 196 184
322 316 360 11 55 32 360 293 194 175 101 106 113 66 342 5 72 360 348 45 261 80 309 84 209 253 347 88 233 248 79 288 84 127 307 229 77 307 91 126 229 129 238 223 235 176 107 53 134 158 228 201 104 63 105 112 123 125 87 89 97 106 71 30 46 63 50 10 352 337 347 4 349 302 316 308 295 292 268 249 255 244 241 240 230 202 163
343 327 329 274 85 196 191 249 134 118 85 52 98 50 314 184 106 325 230 189 61 311 253 144 233 206 159 162 266 295 162 173 125 104 149 275 109 283 93 119 296 69 300 6 276 142 52 344 333 122 223 197 169 245 234 216 209 218 209 199 173 182 156 171 145 129 152 183 217 244 246 247 267 282 266 267 285 281 266 268 272 254 228 220 193 183 172
4 5 149 125 137 264 355 11 90 98 71 90 249 115 236 171 107 243 151 82 295 244 141 228 224 185 182 190 178 290 230 108 129 197 186 290 180 160 232 97 257 106 215 184 232 109 124 204 237 108 284 228 218 230 208 198 198 236 223 240 232 233 228 212 226 214 207 236 237 260 264 239 217 217 230 238 258 278 289 284 264 234 204 201 193 171 176
232 267 348 72 297 341 315 195 318 61 75 7 341 291 81 300 230 205 140 189 191 222 188 180 302 302 240 133 112 194 286 70 212 158 124 211 240 81 71 228 208 101 260 226 222 91 112 90 65 178 237 214 195 199 203 220 227 243 236 229 232 234 239 252 258 251 243 266 273 271 267 260 257 238 226 230 233 244 253 261 253 223 200 194 185 179 163
110 196 273 297 273 266 286 329 91 37 327 219 122 271 213 220 227 296 152 149 236 182 264 165 241 181 233 184 194 149 286 185 150 130 96 315 287 134 213 235 52 133 235 238 135 72 82 158 237 265 253 227 212 177 185 219 244 229 242 235 235 240 247 252 264 282 269 265 275 273 273 285 275 252 243 246 251 251 260 247 215 213 191 173 146 137 140
285 241 167 258 305 214 157 14 270 132 118 333 39 344 338 50 236 190 256 279 302 118 246 138 214 183 315 76 34 36 180 176 115 328 81 225 303 65 100 331 106 303 235 201 101 72 106 216 226 244 225 198 193 186 214 225 242 243 252 250 232 235 232 242 243 250 264 267 267 274 282 288 285 274 260 237 238 252 254 205 188 173 159 150 147 142 140
224 134 49 218 94 293 87 324 254 56 345 90 108 198 254 311 302 9 8 264 221 288 208 144 232 117 227 286 144 256 15 357 32 78 333 266 105 198 135 221 209 228 92 59 85 168 217 211 205 224 210 164 20 13 297 235 223 242 268 257 252 271 265 261 283 303 301 288 272 276 285 281 282 289 285 263 218 207 212 177 160 153 152 143 146 145 144
73 80 17 22 15 268 60 302 322 121 198 249 177 215 204 198 242 189 196 247 128 222 200 107 123 113 207 261 59 344 135 180 330 100 240 124 348 242 133 247 247 55 145 218 222 333 351 284 327 41 61 65 46 12 8 340 329 301 257 279 296 306 332 326 304 297 282 279 281 278 266 264 271 271 268 263 240 203 178 178 173 165 174 171 158 151 152
105 155 102 93 298 299 126 227 125 301 276 165 206 205 214 267 162 281 283 294 205 162 154 204 167 129 199 232 142 211 251 110 89 228 187 92 106 262 233 199 78 68 288 150 178 207 227 258 73 63 72 102 329 327 332 321 308 323 353 319 278 273 275 280 281 278 278 282 282 276 273 268 255 250 257 256 217 201 201 164 163 183 181 176 167 159 160
17 327 120 126 115 266 133 180 236 203 194 221 218 186 160 179 184 174 189 326 341 265 209 176 162 174 155 201 120 324 94 111 161 243 84 86 200 257 40 99 230 204 190 233 218 209 207 218 208 205 195 312 334 335 333 320 317 310 297 292 294 285 276 278 277 275 273 274 274 279 282 279 268 259 250 241 222 205 185 155 147 150 188 178 159 145 143
163 249 97 130 231 188 180 246 212 271 257 232 236 200 207 198 86 317 243 181 207 227 209 140 181 14 324 292 119 199 213 135 67 292 171 207 236 45 23 252 219 28 154 166 205 182 190 203 193 142 9 11 337 291 290 284 282 279 278 278 282 286 290 284 276 271 270 262 258 268 274 274 268 262 238 223 214 189 167 153 156 150 126 131 140 151 155
222 102 145 203 218 227 237 237 64 294 267 268 231 136 234 123 199 237 239 211 194 230 191 137 192 106 252 212 151 121 251 213 137 246 223 167 135 212 184 217 127 309 260 138 186 183 183 180 162 129 247 277 288 286 280 272 273 280 288 289 289 289 289 278 260 261 270 264 261 268 269 259 247 238 254 238 204 208 179 146 133 94 107 163 164 155 143
100 346 328 99 349 307 266 286 314 281 311 355 141 214 230 197 237 255 206 274 254 242 50 341 57 119 231 177 260 260 234 197 196 269 110 207 214 244 72 130 221 187 209 181 153 172 159 174 145 128 220 264 308 296 294 301 312 319 313 306 298 290 278 272 278 286 280 278 280 282 276 272 259 243 243 262 300 38 60 123 112 112 95 110 111 109 135
292 147 229 191 187 231 27 278 193 295 317 293 233 236 195 220 198 225 216 224 328 353 100 181 203 140 23 30 86 22 253 202 90 191 170 208 293 107 158 190 220 175 173 169 150 153 153 162 147 161 194 262 259 300 321 326 332 328 323 326 323 318 311 301 286 280 285 285 283 292 293 274 250 212 130 136 146 140 116 93 118 123 133 126 120 148 175
130 231 261 260 234 238 238 256 288 257 247 239 218 232 170 212 220 236 157 117 75 221 243 221 141 103 98 208 220 194 14 47 233 102 34 292 180 148 213 188 173 164 152 146 155 160 156 172 163 165 177 134 55 317 324 335 337 330 336 338 335 336 338 339 322 287 279 286 289 282 280 255 161 150 160 139 132 131 121 117 118 126 126 121 131 140 152